Flag for Japan Weather past 2 weeks in Kagoshima, Japan

Now
72 °F

Mild.


Feels Like: 70 °F
Forecast: 62 / 80 °F
Wind: 5 mph from Northwest

Location: Kagoshima

Current Time: Jun 3, 2015 at 10:41:14 PM

Latest Report: Jun 3, 2015 at 10:00 PM


Visibility: N/A

Pressure: 29.71 "Hg

Humidity: 87%

Dew point: 68 °F

Location of KagoshimaLocation

Historic Weather in Kagoshima — Graph

°F

Kagoshima temperature yesterday

Maximum temperature yesterday: 78 °F (at 10:00 PM)
Minimum temperature yesterday: 71 °F (at 10:00 AM)
Average temperature yesterday: 74 °F

Past Weeks' High & Low Weather Summary

 TemperatureHumidityPressure
High86 °F (May 27, 1:00 PM)98% (May 30, 9:00 PM)30.03 "Hg (May 30, 9:00 PM)
Low60 °F (May 22, 6:00 AM)27% (May 22, 1:00 PM)29.55 "Hg (Jun 3, 5:00 PM)
Average72 °F74%29.79 "Hg
* Reported May 19 9:00 PM — Jun 3 9:00 PM, Kagoshima, Weather by CustomWeather, © 2015

Note: Actual official high and low records may vary slightly from our data, if they occured in-between our weather recording intervals... More about our weather records

Advertising

Kagoshima weather history for previous 24 hours

 ConditionsComfort  
Time TempWeatherWind HumidityBarometerVisibility
9:00 PM
Wed, Jun 3
72 °FPassing clouds.7 mph88%29.68 "Hg12 mi
8:00 PM74 °FMild.9 mph85%29.63 "HgN/A
7:00 PM76 °FMild.13 mph88%29.59 "HgN/A
6:00 PM78 °FPartly sunny.14 mph84%29.56 "Hg12 mi
5:00 PM80 °FWarm.2 mph86%29.55 "HgN/A
4:00 PM79 °FWarm.3 mph89%29.55 "HgN/A
3:00 PM76 °FLight rain. Overcast.8 mph96%29.56 "Hg6 mi
2:00 PM75 °FMild.5 mph97%29.57 "HgN/A
1:00 PM75 °FMild.3 mph96%29.62 "HgN/A
12:00 PM77 °FRain showers. Overcast.9 mph90%29.66 "Hg5 mi
11:00 AM78 °FWarm.13 mph88%29.67 "HgN/A
10:00 AM78 °FWarm.14 mph86%29.67 "HgN/A
9:00 AM81 °FOvercast.17 mph79%29.68 "Hg9 mi
8:00 AM81 °FWarm.14 mph80%29.68 "HgN/A
7:00 AM80 °FWarm.22 mph82%29.67 "HgN/A
6:00 AM80 °FOvercast.17 mph84%29.68 "Hg9 mi
5:00 AM80 °FWarm.18 mph84%29.68 "HgN/A
4:00 AM79 °FWarm.15 mph88%29.69 "HgN/A
3:00 AM79 °FSprinkles. Overcast.16 mph87%29.70 "Hg9 mi
2:00 AM79 °FWarm.16 mph89%29.71 "HgN/A
1:00 AM79 °FWarm.13 mph91%29.73 "HgN/A
12:00 AM78 °FWarm.8 mph91%29.76 "HgN/A
11:00 PM
Tue, Jun 2
78 °FWarm.9 mph91%29.78 "HgN/A
10:00 PM78 °FWarm.7 mph92%29.77 "HgN/A
Weather by CustomWeather, © 2015

See weather overviewHow to use our weather pages